Overview Statistics Trail Chart Weather Telemetry Raw packets
 

This is the latest recevied weather packets stored in our database for station/object DL2AKT-20. If no packets are shown the sender has not sent any weather packets the latest 10 day(s).

<< 32 33 34 35 36 37 38 >>
Time Temp. Humidity Pressure Rain* Wind** Luminosity Snow
1777439067 10° C 36% 1028 hPa - - - -
1777438167 8.89° C 36% 1027.9 hPa - - - -
1777437267 8.89° C 36% 1027.8 hPa - - - -
1777436367 10° C 34% 1027.7 hPa - - - -
1777435467 9.44° C 36% 1027.5 hPa - - - -
1777434567 9.44° C 35% 1027.4 hPa - - - -
1777433667 10.56° C 34% 1027.3 hPa - - - -
1777432767 9.44° C 35% 1027.3 hPa - - - -
1777431866 9.44° C 35% 1027.3 hPa - - - -
1777430966 10.56° C 34% 1027.2 hPa - - - -
1777430066 10° C 33% 1027.2 hPa - - - -
1777429165 10.56° C 34% 1027.3 hPa - - - -
1777428264 10° C 34% 1027.3 hPa - - - -
1777427364 10.56° C 33% 1027.2 hPa - - - -
1777426463 10° C 33% 1027.2 hPa - - - -
1777425563 11.67° C 33% 1027.1 hPa - - - -
1777424663 12.22° C 33% 1027.1 hPa - - - -
1777423852 12.22° C 33% 1027.2 hPa - - - -
1777422952 11.67° C 32% 1027.1 hPa - - - -
1777422052 12.22° C 34% 1027.1 hPa - - - -
1777421152 12.78° C 34% 1027.1 hPa - - - -
1777420252 12.78° C 34% 1027.2 hPa - - - -
1777419352 12.78° C 34% 1027.2 hPa - - - -
1777418452 12.78° C 33% 1027.2 hPa - - - -
1777417552 13.33° C 33% 1027.3 hPa - - - -

* Rain since midnight (hover to see other rain measurements)
** Current wind speed in m/s (hover to see current wind gust speed)